Time,TemperatureF,DewpointF,PressureIn,WindDirection,WindDirectionDegrees,WindSpeedMPH,WindSpeedGustMPH,Humidity,HourlyPrecipIn,Conditions,Clouds,dailyrainin,SoftwareType,DateUTC
2013-11-17 00:01:00,33.0,29.0,30.39,NW,315,0.0,2.0,85,0.00,,,0.00,Rainwise IP-100,2013-11-17 05:01:00,
2013-11-17 00:06:00,32.0,28.0,30.39,NW,315,1.0,3.0,86,0.00,,,0.00,Rainwise IP-100,2013-11-17 05:06:00,
2013-11-17 00:11:00,32.0,29.0,30.39,NW,315,0.0,2.0,87,0.00,,,0.00,Rainwise IP-100,2013-11-17 05:11:00,
2013-11-17 00:16:00,32.0,29.0,30.39,NW,315,0.0,0.0,88,0.00,,,0.00,Rainwise IP-100,2013-11-17 05:16:00,
2013-11-17 00:21:00,33.0,31.0,30.39,SSE,157,2.0,4.0,87,0.00,,,0.00,Rainwise IP-100,2013-11-17 05:21:00,
2013-11-17 00:26:00,33.0,29.0,30.39,SSE,157,1.0,3.0,86,0.00,,,0.00,Rainwise IP-100,2013-11-17 05:26:00,
2013-11-17 00:31:00,33.0,31.0,30.39,SSE,157,1.0,2.0,88,0.00,,,0.00,Rainwise IP-100,2013-11-17 05:31:00,
2013-11-17 00:36:00,33.0,31.0,30.39,SSE,157,3.0,4.0,87,0.00,,,0.00,Rainwise IP-100,2013-11-17 05:36:00,
2013-11-17 00:41:00,33.0,29.0,30.38,SSE,157,2.0,4.0,86,0.00,,,0.00,Rainwise IP-100,2013-11-17 05:41:00,
2013-11-17 00:46:00,33.0,29.0,30.38,West,270,3.0,5.0,85,0.00,,,0.00,Rainwise IP-100,2013-11-17 05:46:00,
2013-11-17 00:51:00,32.0,29.0,30.38,West,270,2.0,4.0,87,0.00,,,0.00,Rainwise IP-100,2013-11-17 05:51:00,
2013-11-17 00:56:00,31.0,28.0,30.38,West,270,0.0,4.0,91,0.00,,,0.00,Rainwise IP-100,2013-11-17 05:56:00,
2013-11-17 01:01:00,31.0,29.0,30.39,West,270,0.0,3.0,93,0.00,,,0.00,Rainwise IP-100,2013-11-17 06:01:00,
2013-11-17 01:06:00,31.0,29.0,30.39,West,270,2.0,3.0,93,0.00,,,0.00,Rainwise IP-100,2013-11-17 06:06:00,
2013-11-17 01:11:00,31.0,29.0,30.39,SSE,157,4.0,4.0,93,0.00,,,0.00,Rainwise IP-100,2013-11-17 06:11:00,
2013-11-17 01:16:00,32.0,29.0,30.39,SE,135,0.0,4.0,90,0.00,,,0.00,Rainwise IP-100,2013-11-17 06:16:00,
2013-11-17 01:21:00,33.0,31.0,30.37,North,360,5.0,0.0,87,0.00,,,0.00,Rainwise IP-100,2013-11-17 06:21:00,
2013-11-17 01:26:00,32.0,29.0,30.37,NNW,337,0.0,5.0,88,0.00,,,0.00,Rainwise IP-100,2013-11-17 06:26:00,
2013-11-17 01:31:00,32.0,29.0,30.38,WNW,292,0.0,2.0,88,0.00,,,0.00,Rainwise IP-100,2013-11-17 06:31:00,
2013-11-17 01:36:00,32.0,29.0,30.38,WNW,292,1.0,0.0,89,0.00,,,0.00,Rainwise IP-100,2013-11-17 06:36:00,
2013-11-17 01:41:00,32.0,29.0,30.37,ENE,67,3.0,5.0,89,0.00,,,0.00,Rainwise IP-100,2013-11-17 06:41:00,
2013-11-17 01:46:00,32.0,29.0,30.37,ENE,67,3.0,4.0,90,0.00,,,0.00,Rainwise IP-100,2013-11-17 06:46:00,
2013-11-17 01:51:00,31.0,28.0,30.37,ENE,67,0.0,4.0,91,0.00,,,0.00,Rainwise IP-100,2013-11-17 06:51:00,
2013-11-17 01:56:00,31.0,29.0,30.37,ENE,67,1.0,2.0,92,0.00,,,0.00,Rainwise IP-100,2013-11-17 06:56:00,
2013-11-17 02:01:00,31.0,29.0,30.38,ENE,67,0.0,3.0,93,0.00,,,0.00,Rainwise IP-100,2013-11-17 07:01:00,
2013-11-17 02:06:00,30.0,29.0,30.38,ENE,67,0.0,1.0,94,0.00,,,0.00,Rainwise IP-100,2013-11-17 07:06:00,
2013-11-17 02:11:00,30.0,29.0,30.37,ENE,67,0.0,2.0,94,0.00,,,0.00,Rainwise IP-100,2013-11-17 07:11:00,
2013-11-17 02:16:00,31.0,29.0,30.37,ENE,67,1.0,3.0,93,0.00,,,0.00,Rainwise IP-100,2013-11-17 07:16:00,
2013-11-17 02:21:00,31.0,29.0,30.37,NNW,337,3.0,5.0,93,0.00,,,0.00,Rainwise IP-100,2013-11-17 07:21:00,
2013-11-17 02:26:00,30.0,29.0,30.37,West,270,3.0,4.0,95,0.00,,,0.00,Rainwise IP-100,2013-11-17 07:26:00,
2013-11-17 02:31:00,30.0,29.0,30.38,West,270,0.0,3.0,95,0.00,,,0.00,Rainwise IP-100,2013-11-17 07:31:00,
2013-11-17 02:36:00,30.0,29.0,30.38,SSE,157,2.0,3.0,94,0.00,,,0.00,Rainwise IP-100,2013-11-17 07:36:00,
2013-11-17 02:41:00,31.0,29.0,30.38,ESE,112,5.0,5.0,94,0.00,,,0.00,Rainwise IP-100,2013-11-17 07:41:00,
2013-11-17 02:46:00,32.0,29.0,30.38,SSE,157,4.0,5.0,90,0.00,,,0.00,Rainwise IP-100,2013-11-17 07:46:00,
2013-11-17 02:51:00,31.0,28.0,30.37,WNW,292,6.0,6.0,90,0.00,,,0.00,Rainwise IP-100,2013-11-17 07:51:00,
2013-11-17 02:56:00,30.0,29.0,30.37,NW,315,3.0,7.0,94,0.00,,,0.00,Rainwise IP-100,2013-11-17 07:56:00,
2013-11-17 03:01:00,29.0,28.0,30.37,NW,315,2.0,5.0,94,0.00,,,0.00,Rainwise IP-100,2013-11-17 08:01:00,
2013-11-17 03:06:00,29.0,28.0,30.37,East,90,1.0,5.0,94,0.00,,,0.00,Rainwise IP-100,2013-11-17 08:06:00,
2013-11-17 03:11:00,29.0,28.0,30.37,East,90,0.0,3.0,94,0.00,,,0.00,Rainwise IP-100,2013-11-17 08:11:00,
2013-11-17 03:16:00,30.0,29.0,30.37,East,90,0.0,2.0,95,0.00,,,0.00,Rainwise IP-100,2013-11-17 08:16:00,
2013-11-17 03:21:00,30.0,29.0,30.37,East,90,0.0,0.0,95,0.00,,,0.00,Rainwise IP-100,2013-11-17 08:21:00,
2013-11-17 03:26:00,30.0,29.0,30.37,East,90,3.0,3.0,95,0.00,,,0.00,Rainwise IP-100,2013-11-17 08:26:00,
2013-11-17 03:31:00,31.0,29.0,30.36,NNW,337,6.0,6.0,95,0.00,,,0.00,Rainwise IP-100,2013-11-17 08:31:00,
2013-11-17 03:36:00,30.0,29.0,30.36,NNW,337,0.0,6.0,95,0.00,,,0.00,Rainwise IP-100,2013-11-17 08:36:00,
2013-11-17 03:41:00,30.0,29.0,30.37,NNW,337,0.0,0.0,95,0.00,,,0.00,Rainwise IP-100,2013-11-17 08:41:00,
2013-11-17 03:46:00,30.0,29.0,30.37,ESE,112,3.0,3.0,95,0.00,,,0.00,Rainwise IP-100,2013-11-17 08:46:00,
2013-11-17 03:51:00,31.0,29.0,30.36,ESE,112,0.0,4.0,93,0.00,,,0.00,Rainwise IP-100,2013-11-17 08:51:00,
2013-11-17 03:56:00,31.0,29.0,30.36,NW,315,5.0,5.0,94,0.00,,,0.00,Rainwise IP-100,2013-11-17 08:56:00,
2013-11-17 04:01:00,30.0,29.0,30.36,SW,225,3.0,5.0,95,0.00,,,0.00,Rainwise IP-100,2013-11-17 09:01:00,
2013-11-17 04:06:00,31.0,29.0,30.36,SE,135,3.0,4.0,95,0.00,,,0.00,Rainwise IP-100,2013-11-17 09:06:00,
2013-11-17 04:11:00,31.0,29.0,30.35,SE,135,2.0,4.0,94,0.00,,,0.00,Rainwise IP-100,2013-11-17 09:11:00,
2013-11-17 04:16:00,31.0,29.0,30.35,WNW,292,1.0,5.0,94,0.00,,,0.00,Rainwise IP-100,2013-11-17 09:16:00,
2013-11-17 04:21:00,31.0,29.0,30.35,WNW,292,3.0,3.0,95,0.00,,,0.00,Rainwise IP-100,2013-11-17 09:21:00,
2013-11-17 04:26:00,30.0,29.0,30.35,WNW,292,0.0,3.0,95,0.00,,,0.00,Rainwise IP-100,2013-11-17 09:26:00,
2013-11-17 04:31:00,30.0,29.0,30.36,ENE,67,0.0,4.0,95,0.00,,,0.00,Rainwise IP-100,2013-11-17 09:31:00,
2013-11-17 04:36:00,30.0,29.0,30.36,SSE,157,4.0,0.0,95,0.00,,,0.00,Rainwise IP-100,2013-11-17 09:36:00,
2013-11-17 04:41:00,31.0,29.0,30.36,SE,135,5.0,6.0,95,0.00,,,0.00,Rainwise IP-100,2013-11-17 09:41:00,
2013-11-17 04:46:00,31.0,29.0,30.36,West,270,3.0,6.0,95,0.00,,,0.00,Rainwise IP-100,2013-11-17 09:46:00,
2013-11-17 04:51:00,31.0,29.0,30.36,WSW,247,2.0,5.0,95,0.00,,,0.00,Rainwise IP-100,2013-11-17 09:51:00,
2013-11-17 04:56:00,31.0,29.0,30.36,WSW,247,0.0,3.0,95,0.00,,,0.00,Rainwise IP-100,2013-11-17 09:56:00,
2013-11-17 05:01:00,30.0,29.0,30.35,SE,135,3.0,6.0,95,0.00,,,0.00,Rainwise IP-100,2013-11-17 10:01:00,
2013-11-17 05:06:00,31.0,29.0,30.35,WSW,247,5.0,6.0,95,0.00,,,0.00,Rainwise IP-100,2013-11-17 10:06:00,
2013-11-17 05:11:00,30.0,29.0,30.36,WSW,247,4.0,6.0,95,0.00,,,0.00,Rainwise IP-100,2013-11-17 10:11:00,
2013-11-17 05:16:00,32.0,31.0,30.36,SSE,157,5.0,6.0,94,0.00,,,0.00,Rainwise IP-100,2013-11-17 10:16:00,
2013-11-17 05:21:00,33.0,31.0,30.35,SE,135,5.0,8.0,91,0.00,,,0.00,Rainwise IP-100,2013-11-17 10:21:00,
2013-11-17 05:26:00,33.0,31.0,30.35,WNW,292,4.0,7.0,92,0.00,,,0.00,Rainwise IP-100,2013-11-17 10:26:00,
2013-11-17 05:31:00,32.0,31.0,30.35,NW,315,0.0,5.0,94,0.00,,,0.00,Rainwise IP-100,2013-11-17 10:31:00,
2013-11-17 05:36:00,31.0,29.0,30.35,SSW,202,1.0,4.0,95,0.00,,,0.00,Rainwise IP-100,2013-11-17 10:36:00,
2013-11-17 05:41:00,31.0,29.0,30.35,WSW,247,5.0,6.0,95,0.00,,,0.00,Rainwise IP-100,2013-11-17 10:41:00,
2013-11-17 05:46:00,32.0,31.0,30.35,SE,135,5.0,7.0,95,0.00,,,0.00,Rainwise IP-100,2013-11-17 10:46:00,
2013-11-17 05:51:00,33.0,32.0,30.34,SSE,157,3.0,6.0,93,0.00,,,0.00,Rainwise IP-100,2013-11-17 10:51:00,
2013-11-17 05:56:00,33.0,32.0,30.34,WSW,247,0.0,4.0,94,0.00,,,0.00,Rainwise IP-100,2013-11-17 10:56:00,
2013-11-17 06:01:00,32.0,31.0,30.33,North,360,3.0,3.0,94,0.00,,,0.00,Rainwise IP-100,2013-11-17 11:01:00,
2013-11-17 06:06:00,31.0,29.0,30.33,NW,315,4.0,8.0,95,0.00,,,0.00,Rainwise IP-100,2013-11-17 11:06:00,
2013-11-17 06:11:00,31.0,29.0,30.34,WNW,292,0.0,7.0,95,0.00,,,0.00,Rainwise IP-100,2013-11-17 11:11:00,
2013-11-17 06:16:00,32.0,31.0,30.34,SE,135,7.0,7.0,95,0.00,,,0.00,Rainwise IP-100,2013-11-17 11:16:00,
2013-11-17 06:21:00,33.0,31.0,30.34,WSW,247,5.0,7.0,92,0.00,,,0.00,Rainwise IP-100,2013-11-17 11:21:00,
2013-11-17 06:26:00,35.0,31.0,30.34,SSW,202,3.0,6.0,87,0.00,,,0.00,Rainwise IP-100,2013-11-17 11:26:00,
2013-11-17 06:31:00,37.0,33.0,30.31,SW,225,1.0,6.0,85,0.00,,,0.00,Rainwise IP-100,2013-11-17 11:31:00,
2013-11-17 06:36:00,35.0,32.0,30.31,West,270,1.0,5.0,88,0.00,,,0.00,Rainwise IP-100,2013-11-17 11:36:00,
2013-11-17 06:41:00,36.0,32.0,30.32,SW,225,8.0,8.0,87,0.00,,,0.00,Rainwise IP-100,2013-11-17 11:41:00,
2013-11-17 06:46:00,42.0,35.0,30.32,SSW,202,10.0,13.0,75,0.00,,,0.00,Rainwise IP-100,2013-11-17 11:46:00,
2013-11-17 06:51:00,43.0,36.0,30.29,SW,225,6.0,19.0,74,0.00,,,0.00,Rainwise IP-100,2013-11-17 11:51:00,
2013-11-17 06:56:00,43.0,36.0,30.29,SW,225,10.0,12.0,75,0.00,,,0.00,Rainwise IP-100,2013-11-17 11:56:00,
2013-11-17 07:01:00,43.0,36.0,30.29,SW,225,6.0,15.0,76,0.00,,,0.00,Rainwise IP-100,2013-11-17 12:01:00,
2013-11-17 07:06:00,43.0,36.0,30.29,SW,225,11.0,16.0,76,0.00,,,0.00,Rainwise IP-100,2013-11-17 12:06:00,
2013-11-17 07:11:00,43.0,37.0,30.28,WSW,247,8.0,17.0,77,0.00,,,0.00,Rainwise IP-100,2013-11-17 12:11:00,
2013-11-17 07:16:00,43.0,37.0,30.28,SSW,202,9.0,25.0,77,0.00,,,0.00,Rainwise IP-100,2013-11-17 12:16:00,
2013-11-17 07:21:00,43.0,37.0,30.29,South,180,11.0,23.0,78,0.00,,,0.00,Rainwise IP-100,2013-11-17 12:21:00,
2013-11-17 07:26:00,43.0,37.0,30.29,South,180,10.0,13.0,78,0.00,,,0.00,Rainwise IP-100,2013-11-17 12:26:00,
2013-11-17 07:31:00,43.0,37.0,30.30,SSE,157,9.0,16.0,79,0.00,,,0.00,Rainwise IP-100,2013-11-17 12:31:00,
2013-11-17 07:36:00,43.0,37.0,30.30,South,180,11.0,14.0,80,0.00,,,0.00,Rainwise IP-100,2013-11-17 12:36:00,
2013-11-17 07:41:00,43.0,37.0,30.29,SW,225,7.0,14.0,80,0.00,,,0.00,Rainwise IP-100,2013-11-17 12:41:00,
2013-11-17 07:46:00,43.0,38.0,30.29,SW,225,10.0,13.0,81,0.00,,,0.00,Rainwise IP-100,2013-11-17 12:46:00,
2013-11-17 07:51:00,44.0,39.0,30.29,WSW,247,10.0,16.0,82,0.00,,,0.00,Rainwise IP-100,2013-11-17 12:51:00,
2013-11-17 07:56:00,44.0,39.0,30.29,WSW,247,7.0,22.0,82,0.00,,,0.00,Rainwise IP-100,2013-11-17 12:56:00,
2013-11-17 08:01:00,44.0,39.0,30.30,SSW,202,9.0,20.0,83,0.00,,,0.00,Rainwise IP-100,2013-11-17 13:01:00,
2013-11-17 08:06:00,44.0,39.0,30.30,SW,225,7.0,13.0,83,0.00,,,0.00,Rainwise IP-100,2013-11-17 13:06:00,
2013-11-17 08:11:00,44.0,39.0,30.29,SW,225,7.0,10.0,83,0.00,,,0.00,Rainwise IP-100,2013-11-17 13:11:00,
2013-11-17 08:16:00,44.0,39.0,30.29,SW,225,8.0,13.0,84,0.00,,,0.00,Rainwise IP-100,2013-11-17 13:16:00,
2013-11-17 08:21:00,44.0,39.0,30.31,SW,225,11.0,14.0,84,0.00,,,0.00,Rainwise IP-100,2013-11-17 13:21:00,
2013-11-17 08:26:00,44.0,39.0,30.31,South,180,9.0,15.0,84,0.00,,,0.00,Rainwise IP-100,2013-11-17 13:26:00,
2013-11-17 08:31:00,44.0,40.0,30.30,SW,225,9.0,13.0,85,0.00,,,0.00,Rainwise IP-100,2013-11-17 13:31:00,
2013-11-17 08:36:00,44.0,40.0,30.30,SSW,202,7.0,13.0,86,0.00,,,0.00,Rainwise IP-100,2013-11-17 13:36:00,
2013-11-17 08:41:00,44.0,40.0,30.29,SSW,202,9.0,14.0,86,0.00,,,0.00,Rainwise IP-100,2013-11-17 13:41:00,
2013-11-17 08:46:00,44.0,40.0,30.29,SW,225,13.0,15.0,86,0.00,,,0.00,Rainwise IP-100,2013-11-17 13:46:00,
2013-11-17 08:51:00,44.0,40.0,30.29,SW,225,12.0,17.0,86,0.00,,,0.00,Rainwise IP-100,2013-11-17 13:51:00,
2013-11-17 08:56:00,44.0,40.0,30.29,SW,225,10.0,14.0,87,0.00,,,0.00,Rainwise IP-100,2013-11-17 13:56:00,
2013-11-17 09:01:00,44.0,40.0,30.29,WSW,247,12.0,17.0,86,0.00,,,0.00,Rainwise IP-100,2013-11-17 14:01:00,
2013-11-17 09:06:00,44.0,40.0,30.29,SW,225,11.0,14.0,86,0.00,,,0.00,Rainwise IP-100,2013-11-17 14:06:00,
2013-11-17 09:11:00,45.0,41.0,30.28,SW,225,8.0,15.0,87,0.00,,,0.00,Rainwise IP-100,2013-11-17 14:11:00,
2013-11-17 09:16:00,45.0,41.0,30.28,SSW,202,6.0,12.0,88,0.00,,,0.00,Rainwise IP-100,2013-11-17 14:16:00,
2013-11-17 09:21:00,45.0,41.0,30.28,SSW,202,9.0,10.0,88,0.00,,,0.00,Rainwise IP-100,2013-11-17 14:21:00,
2013-11-17 09:26:00,45.0,41.0,30.28,SW,225,6.0,15.0,88,0.00,,,0.00,Rainwise IP-100,2013-11-17 14:26:00,
2013-11-17 09:31:00,45.0,42.0,30.28,SW,225,6.0,14.0,89,0.00,,,0.00,Rainwise IP-100,2013-11-17 14:31:00,
2013-11-17 09:36:00,45.0,42.0,30.28,SW,225,12.0,12.0,90,0.00,,,0.00,Rainwise IP-100,2013-11-17 14:36:00,
2013-11-17 09:41:00,44.0,41.0,30.29,SW,225,10.0,14.0,90,0.00,,,0.00,Rainwise IP-100,2013-11-17 14:41:00,
2013-11-17 09:46:00,44.0,41.0,30.29,SSW,202,7.0,12.0,91,0.00,,,0.00,Rainwise IP-100,2013-11-17 14:46:00,
2013-11-17 09:51:00,44.0,41.0,30.29,SW,225,6.0,9.0,91,0.00,,,0.00,Rainwise IP-100,2013-11-17 14:51:00,
2013-11-17 09:56:00,44.0,42.0,30.29,SW,225,6.0,12.0,92,0.00,,,0.00,Rainwise IP-100,2013-11-17 14:56:00,
2013-11-17 10:01:00,44.0,42.0,30.30,SW,225,10.0,15.0,93,0.00,,,0.00,Rainwise IP-100,2013-11-17 15:01:00,
2013-11-17 10:06:00,44.0,42.0,30.30,SW,225,10.0,17.0,94,0.00,,,0.00,Rainwise IP-100,2013-11-17 15:06:00,
2013-11-17 10:11:00,44.0,42.0,30.29,SSW,202,15.0,19.0,94,0.00,,,0.00,Rainwise IP-100,2013-11-17 15:11:00,
2013-11-17 10:16:00,44.0,43.0,30.29,SW,225,11.0,16.0,95,0.00,,,0.00,Rainwise IP-100,2013-11-17 15:16:00,
2013-11-17 10:21:00,44.0,42.0,30.28,SW,225,9.0,16.0,94,0.00,,,0.00,Rainwise IP-100,2013-11-17 15:21:00,
2013-11-17 10:26:00,44.0,42.0,30.28,SW,225,7.0,14.0,94,0.00,,,0.00,Rainwise IP-100,2013-11-17 15:26:00,
2013-11-17 10:31:00,44.0,42.0,30.27,WSW,247,7.0,14.0,93,0.00,,,0.00,Rainwise IP-100,2013-11-17 15:31:00,
2013-11-17 10:36:00,45.0,43.0,30.27,WSW,247,8.0,12.0,93,0.00,,,0.00,Rainwise IP-100,2013-11-17 15:36:00,
2013-11-17 10:41:00,45.0,43.0,30.26,WSW,247,2.0,10.0,94,0.00,,,0.00,Rainwise IP-100,2013-11-17 15:41:00,
2013-11-17 10:46:00,45.0,43.0,30.26,WSW,247,12.0,12.0,94,0.00,,,0.00,Rainwise IP-100,2013-11-17 15:46:00,
2013-11-17 10:51:00,45.0,43.0,30.26,WSW,247,7.0,16.0,94,0.00,,,0.00,Rainwise IP-100,2013-11-17 15:51:00,
2013-11-17 10:56:00,45.0,43.0,30.26,SSW,202,6.0,15.0,94,0.00,,,0.00,Rainwise IP-100,2013-11-17 15:56:00,
2013-11-17 11:01:00,45.0,43.0,30.26,WSW,247,7.0,12.0,94,0.00,,,0.00,Rainwise IP-100,2013-11-17 16:01:00,
2013-11-17 11:06:00,45.0,43.0,30.26,West,270,8.0,12.0,94,0.00,,,0.00,Rainwise IP-100,2013-11-17 16:06:00,
2013-11-17 11:11:00,44.0,43.0,30.25,WSW,247,9.0,15.0,95,0.00,,,0.00,Rainwise IP-100,2013-11-17 16:11:00,
2013-11-17 11:16:00,44.0,43.0,30.25,SW,225,10.0,16.0,96,0.00,,,0.00,Rainwise IP-100,2013-11-17 16:16:00,
2013-11-17 11:21:00,44.0,43.0,30.26,WSW,247,9.0,21.0,96,0.00,,,0.00,Rainwise IP-100,2013-11-17 16:21:00,
2013-11-17 11:26:00,44.0,43.0,30.26,SW,225,9.0,18.0,96,0.00,,,0.00,Rainwise IP-100,2013-11-17 16:26:00,
2013-11-17 11:31:00,44.0,43.0,30.25,SSW,202,17.0,18.0,96,0.00,,,0.00,Rainwise IP-100,2013-11-17 16:31:00,
2013-11-17 11:36:00,44.0,43.0,30.25,WSW,247,7.0,18.0,96,0.00,,,0.00,Rainwise IP-100,2013-11-17 16:36:00,
2013-11-17 11:41:00,45.0,44.0,30.23,SW,225,10.0,16.0,96,0.00,,,0.00,Rainwise IP-100,2013-11-17 16:41:00,
2013-11-17 11:46:00,45.0,44.0,30.23,SW,225,8.0,19.0,96,0.00,,,0.00,Rainwise IP-100,2013-11-17 16:46:00,
2013-11-17 11:51:00,45.0,44.0,30.23,SW,225,10.0,17.0,95,0.00,,,0.00,Rainwise IP-100,2013-11-17 16:51:00,
2013-11-17 11:56:00,45.0,44.0,30.23,SW,225,14.0,18.0,95,0.00,,,0.00,Rainwise IP-100,2013-11-17 16:56:00,
2013-11-17 12:01:00,45.0,43.0,30.23,SW,225,12.0,18.0,94,0.00,,,0.00,Rainwise IP-100,2013-11-17 17:01:00,
2013-11-17 12:06:00,45.0,43.0,30.23,SW,225,10.0,18.0,94,0.00,,,0.00,Rainwise IP-100,2013-11-17 17:06:00,
2013-11-17 12:11:00,45.0,43.0,30.22,WSW,247,8.0,15.0,94,0.00,,,0.00,Rainwise IP-100,2013-11-17 17:11:00,
2013-11-17 12:16:00,46.0,44.0,30.22,South,180,15.0,16.0,93,0.00,,,0.00,Rainwise IP-100,2013-11-17 17:16:00,
2013-11-17 12:21:00,46.0,44.0,30.22,SW,225,11.0,19.0,93,0.00,,,0.00,Rainwise IP-100,2013-11-17 17:21:00,
2013-11-17 12:26:00,46.0,44.0,30.22,SW,225,13.0,20.0,94,0.00,,,0.00,Rainwise IP-100,2013-11-17 17:26:00,
2013-11-17 12:31:00,47.0,45.0,30.22,SW,225,12.0,17.0,93,0.00,,,0.00,Rainwise IP-100,2013-11-17 17:31:00,
2013-11-17 12:37:00,47.0,44.0,30.22,SW,225,12.0,15.0,92,0.00,,,0.00,Rainwise IP-100,2013-11-17 17:37:00,
2013-11-17 12:42:00,47.0,44.0,30.20,SW,225,7.0,19.0,92,0.00,,,0.00,Rainwise IP-100,2013-11-17 17:42:00,
2013-11-17 12:47:00,47.0,44.0,30.20,SSW,202,10.0,15.0,92,0.00,,,0.00,Rainwise IP-100,2013-11-17 17:47:00,
2013-11-17 12:52:00,47.0,44.0,30.20,SW,225,9.0,15.0,92,0.00,,,0.00,Rainwise IP-100,2013-11-17 17:52:00,
2013-11-17 12:57:00,47.0,45.0,30.20,SW,225,10.0,15.0,93,0.00,,,0.00,Rainwise IP-100,2013-11-17 17:57:00,
2013-11-17 13:02:00,47.0,45.0,30.20,SW,225,8.0,13.0,94,0.00,,,0.00,Rainwise IP-100,2013-11-17 18:02:00,
2013-11-17 13:07:00,47.0,45.0,30.20,WSW,247,6.0,10.0,93,0.00,,,0.00,Rainwise IP-100,2013-11-17 18:07:00,
2013-11-17 13:12:00,47.0,45.0,30.20,WSW,247,9.0,12.0,93,0.00,,,0.00,Rainwise IP-100,2013-11-17 18:12:00,
2013-11-17 13:17:00,46.0,44.0,30.20,SW,225,9.0,16.0,94,0.00,,,0.00,Rainwise IP-100,2013-11-17 18:17:00,
2013-11-17 13:22:00,46.0,44.0,30.20,SW,225,7.0,12.0,94,0.00,,,0.00,Rainwise IP-100,2013-11-17 18:22:00,
2013-11-17 13:27:00,47.0,45.0,30.20,SW,225,12.0,16.0,93,0.00,,,0.00,Rainwise IP-100,2013-11-17 18:27:00,
2013-11-17 13:32:00,47.0,45.0,30.19,SW,225,9.0,16.0,93,0.00,,,0.00,Rainwise IP-100,2013-11-17 18:32:00,
2013-11-17 13:37:00,46.0,44.0,30.19,SSW,202,13.0,17.0,93,0.00,,,0.00,Rainwise IP-100,2013-11-17 18:37:00,
2013-11-17 13:42:00,46.0,44.0,30.19,South,180,10.0,21.0,94,0.00,,,0.00,Rainwise IP-100,2013-11-17 18:42:00,
2013-11-17 13:47:00,46.0,44.0,30.19,South,180,11.0,21.0,94,0.00,,,0.00,Rainwise IP-100,2013-11-17 18:47:00,
2013-11-17 13:52:00,46.0,44.0,30.19,SSW,202,6.0,15.0,94,0.00,,,0.00,Rainwise IP-100,2013-11-17 18:52:00,
2013-11-17 13:57:00,45.0,44.0,30.19,SE,135,7.0,13.0,95,0.00,,,0.00,Rainwise IP-100,2013-11-17 18:57:00,
2013-11-17 14:02:00,45.0,44.0,30.19,SSW,202,7.0,15.0,95,0.00,,,0.00,Rainwise IP-100,2013-11-17 19:02:00,
2013-11-17 14:07:00,46.0,44.0,30.19,South,180,10.0,16.0,95,0.00,,,0.00,Rainwise IP-100,2013-11-17 19:07:00,
2013-11-17 14:12:00,46.0,45.0,30.19,SSW,202,10.0,16.0,96,0.00,,,0.00,Rainwise IP-100,2013-11-17 19:12:00,
2013-11-17 14:17:00,46.0,45.0,30.19,South,180,7.0,16.0,96,0.00,,,0.00,Rainwise IP-100,2013-11-17 19:17:00,
2013-11-17 14:22:00,46.0,44.0,30.19,SW,225,10.0,14.0,95,0.00,,,0.00,Rainwise IP-100,2013-11-17 19:22:00,
2013-11-17 14:27:00,46.0,44.0,30.19,SSW,202,10.0,13.0,95,0.00,,,0.00,Rainwise IP-100,2013-11-17 19:27:00,
2013-11-17 14:32:00,46.0,44.0,30.18,SSW,202,9.0,13.0,95,0.00,,,0.00,Rainwise IP-100,2013-11-17 19:32:00,
2013-11-17 14:37:00,46.0,44.0,30.18,SW,225,9.0,10.0,95,0.00,,,0.00,Rainwise IP-100,2013-11-17 19:37:00,
2013-11-17 14:42:00,46.0,44.0,30.17,SW,225,7.0,14.0,95,0.00,,,0.00,Rainwise IP-100,2013-11-17 19:42:00,
2013-11-17 14:47:00,46.0,44.0,30.17,SW,225,9.0,15.0,95,0.00,,,0.00,Rainwise IP-100,2013-11-17 19:47:00,
2013-11-17 14:52:00,46.0,44.0,30.17,SW,225,10.0,20.0,94,0.00,,,0.00,Rainwise IP-100,2013-11-17 19:52:00,
2013-11-17 14:57:00,46.0,44.0,30.17,SW,225,7.0,20.0,95,0.00,,,0.00,Rainwise IP-100,2013-11-17 19:57:00,
2013-11-17 15:02:00,46.0,44.0,30.17,SW,225,9.0,15.0,95,0.00,,,0.00,Rainwise IP-100,2013-11-17 20:02:00,
2013-11-17 15:07:00,46.0,45.0,30.17,South,180,15.0,15.0,97,0.00,,,0.00,Rainwise IP-100,2013-11-17 20:07:00,
2013-11-17 15:12:00,46.0,45.0,30.17,SSW,202,13.0,17.0,97,0.00,,,0.00,Rainwise IP-100,2013-11-17 20:12:00,
2013-11-17 15:17:00,45.0,44.0,30.17,SW,225,9.0,15.0,97,0.00,,,0.00,Rainwise IP-100,2013-11-17 20:17:00,
2013-11-17 15:22:00,46.0,45.0,30.16,South,180,10.0,15.0,97,0.00,,,0.00,Rainwise IP-100,2013-11-17 20:22:00,
2013-11-17 15:27:00,46.0,45.0,30.16,SW,225,7.0,15.0,97,0.00,,,0.00,Rainwise IP-100,2013-11-17 20:27:00,
2013-11-17 15:32:00,46.0,45.0,30.15,SSW,202,9.0,12.0,97,0.00,,,0.00,Rainwise IP-100,2013-11-17 20:32:00,
2013-11-17 15:37:00,46.0,45.0,30.15,SW,225,5.0,13.0,97,0.00,,,0.00,Rainwise IP-100,2013-11-17 20:37:00,
2013-11-17 15:42:00,46.0,45.0,30.14,South,180,7.0,12.0,97,0.00,,,0.00,Rainwise IP-100,2013-11-17 20:42:00,
2013-11-17 15:47:00,46.0,45.0,30.14,SW,225,4.0,13.0,97,0.00,,,0.00,Rainwise IP-100,2013-11-17 20:47:00,
2013-11-17 15:52:00,46.0,45.0,30.15,South,180,6.0,9.0,97,0.00,,,0.00,Rainwise IP-100,2013-11-17 20:52:00,
2013-11-17 15:57:00,46.0,45.0,30.15,South,180,4.0,7.0,97,0.00,,,0.00,Rainwise IP-100,2013-11-17 20:57:00,
2013-11-17 16:02:00,46.0,45.0,30.14,SW,225,6.0,12.0,97,0.00,,,0.00,Rainwise IP-100,2013-11-17 21:02:00,
2013-11-17 16:07:00,46.0,45.0,30.14,SW,225,16.0,16.0,97,0.00,,,0.00,Rainwise IP-100,2013-11-17 21:07:00,
2013-11-17 16:12:00,46.0,45.0,30.13,SW,225,11.0,16.0,97,0.00,,,0.00,Rainwise IP-100,2013-11-17 21:12:00,
2013-11-17 16:17:00,47.0,46.0,30.13,WSW,247,7.0,18.0,97,0.00,,,0.00,Rainwise IP-100,2013-11-17 21:17:00,
2013-11-17 16:22:00,47.0,46.0,30.12,SW,225,13.0,19.0,97,0.00,,,0.00,Rainwise IP-100,2013-11-17 21:22:00,
2013-11-17 16:27:00,47.0,46.0,30.12,SW,225,9.0,14.0,97,0.00,,,0.00,Rainwise IP-100,2013-11-17 21:27:00,
2013-11-17 16:32:00,47.0,46.0,30.12,SSW,202,10.0,17.0,97,0.00,,,0.00,Rainwise IP-100,2013-11-17 21:32:00,
2013-11-17 16:37:00,47.0,46.0,30.12,SW,225,10.0,17.0,97,0.00,,,0.00,Rainwise IP-100,2013-11-17 21:37:00,
2013-11-17 16:42:00,47.0,46.0,30.12,South,180,9.0,13.0,97,0.00,,,0.00,Rainwise IP-100,2013-11-17 21:42:00,
2013-11-17 16:47:00,47.0,46.0,30.12,SSE,157,8.0,12.0,97,0.00,,,0.00,Rainwise IP-100,2013-11-17 21:47:00,
2013-11-17 16:52:00,47.0,46.0,30.11,South,180,7.0,12.0,97,0.00,,,0.00,Rainwise IP-100,2013-11-17 21:52:00,
2013-11-17 16:57:00,46.0,45.0,30.11,SW,225,4.0,11.0,97,0.00,,,0.00,Rainwise IP-100,2013-11-17 21:57:00,
2013-11-17 17:02:00,46.0,45.0,30.11,SSW,202,11.0,14.0,97,0.06,,,0.01,Rainwise IP-100,2013-11-17 22:02:00,
2013-11-17 17:07:00,46.0,45.0,30.11,SW,225,10.0,13.0,97,0.06,,,0.01,Rainwise IP-100,2013-11-17 22:07:00,
2013-11-17 17:12:00,46.0,45.0,30.12,SW,225,7.0,12.0,97,0.00,,,0.01,Rainwise IP-100,2013-11-17 22:12:00,
2013-11-17 17:17:00,46.0,45.0,30.12,SW,225,5.0,10.0,97,0.00,,,0.01,Rainwise IP-100,2013-11-17 22:17:00,
2013-11-17 17:22:00,46.0,45.0,30.11,South,180,13.0,13.0,97,0.00,,,0.01,Rainwise IP-100,2013-11-17 22:22:00,
2013-11-17 17:27:00,46.0,45.0,30.11,SW,225,9.0,16.0,97,0.00,,,0.01,Rainwise IP-100,2013-11-17 22:27:00,
2013-11-17 17:32:00,46.0,45.0,30.11,SW,225,6.0,15.0,97,0.00,,,0.01,Rainwise IP-100,2013-11-17 22:32:00,
2013-11-17 17:37:00,46.0,45.0,30.11,South,180,10.0,15.0,97,0.00,,,0.01,Rainwise IP-100,2013-11-17 22:37:00,
2013-11-17 17:42:00,46.0,45.0,30.11,South,180,13.0,16.0,97,0.00,,,0.01,Rainwise IP-100,2013-11-17 22:42:00,
2013-11-17 17:47:00,46.0,45.0,30.11,SSW,202,9.0,14.0,97,0.00,,,0.01,Rainwise IP-100,2013-11-17 22:47:00,
2013-11-17 17:52:00,46.0,45.0,30.10,SW,225,7.0,13.0,97,0.00,,,0.01,Rainwise IP-100,2013-11-17 22:52:00,
2013-11-17 17:57:00,46.0,45.0,30.10,WSW,247,6.0,13.0,97,0.00,,,0.01,Rainwise IP-100,2013-11-17 22:57:00,
2013-11-17 18:02:00,46.0,45.0,30.09,SW,225,6.0,10.0,97,0.00,,,0.01,Rainwise IP-100,2013-11-17 23:02:00,
2013-11-17 18:07:00,46.0,45.0,30.09,South,180,5.0,8.0,97,0.00,,,0.01,Rainwise IP-100,2013-11-17 23:07:00,
2013-11-17 18:12:00,46.0,45.0,30.09,South,180,7.0,8.0,97,0.00,,,0.01,Rainwise IP-100,2013-11-17 23:12:00,
2013-11-17 18:17:00,46.0,45.0,30.09,SW,225,7.0,15.0,97,0.00,,,0.01,Rainwise IP-100,2013-11-17 23:17:00,
2013-11-17 18:22:00,47.0,46.0,30.08,WSW,247,5.0,17.0,97,0.06,,,0.02,Rainwise IP-100,2013-11-17 23:22:00,
2013-11-17 18:27:00,47.0,46.0,30.08,South,180,14.0,16.0,97,0.06,,,0.02,Rainwise IP-100,2013-11-17 23:27:00,
2013-11-17 18:32:00,46.0,45.0,30.08,SSW,202,16.0,20.0,97,0.00,,,0.02,Rainwise IP-100,2013-11-17 23:32:00,
2013-11-17 18:37:00,46.0,45.0,30.08,South,180,10.0,20.0,97,0.00,,,0.02,Rainwise IP-100,2013-11-17 23:37:00,
2013-11-17 18:42:00,46.0,45.0,30.08,South,180,19.0,19.0,97,0.00,,,0.02,Rainwise IP-100,2013-11-17 23:42:00,
2013-11-17 18:47:00,46.0,45.0,30.08,SSW,202,9.0,22.0,97,0.00,,,0.02,Rainwise IP-100,2013-11-17 23:47:00,
2013-11-17 18:52:00,46.0,45.0,30.08,SW,225,12.0,19.0,97,0.00,,,0.02,Rainwise IP-100,2013-11-17 23:52:00,
2013-11-17 18:57:00,46.0,45.0,30.08,SSW,202,10.0,16.0,97,0.00,,,0.02,Rainwise IP-100,2013-11-17 23:57:00,
2013-11-17 19:02:00,46.0,45.0,30.07,South,180,16.0,16.0,97,0.00,,,0.02,Rainwise IP-100,2013-11-18 00:02:00,
2013-11-17 19:07:00,46.0,45.0,30.07,South,180,6.0,16.0,97,0.00,,,0.02,Rainwise IP-100,2013-11-18 00:07:00,
2013-11-17 19:12:00,46.0,45.0,30.07,South,180,15.0,15.0,97,0.00,,,0.02,Rainwise IP-100,2013-11-18 00:12:00,
2013-11-17 19:17:00,46.0,45.0,30.07,South,180,12.0,17.0,97,0.00,,,0.02,Rainwise IP-100,2013-11-18 00:17:00,
2013-11-17 19:22:00,46.0,45.0,30.07,SSW,202,9.0,17.0,97,0.00,,,0.02,Rainwise IP-100,2013-11-18 00:22:00,
2013-11-17 19:27:00,46.0,45.0,30.07,West,270,7.0,18.0,97,0.00,,,0.02,Rainwise IP-100,2013-11-18 00:27:00,
2013-11-17 19:32:00,46.0,45.0,30.05,SSW,202,8.0,13.0,97,0.00,,,0.02,Rainwise IP-100,2013-11-18 00:32:00,
2013-11-17 19:37:00,46.0,45.0,30.05,SSW,202,7.0,17.0,97,0.00,,,0.02,Rainwise IP-100,2013-11-18 00:37:00,
2013-11-17 19:42:00,47.0,46.0,30.04,SSW,202,11.0,19.0,97,0.00,,,0.02,Rainwise IP-100,2013-11-18 00:42:00,
2013-11-17 19:47:00,47.0,46.0,30.04,SSW,202,9.0,17.0,97,0.00,,,0.02,Rainwise IP-100,2013-11-18 00:47:00,
2013-11-17 19:52:00,47.0,46.0,30.04,South,180,9.0,13.0,97,0.00,,,0.02,Rainwise IP-100,2013-11-18 00:52:00,
2013-11-17 19:57:00,47.0,46.0,30.04,SSE,157,8.0,14.0,97,0.06,,,0.03,Rainwise IP-100,2013-11-18 00:57:00,
2013-11-17 20:02:00,47.0,46.0,30.03,SW,225,6.0,9.0,97,0.06,,,0.04,Rainwise IP-100,2013-11-18 01:02:00,
2013-11-17 20:07:00,47.0,46.0,30.03,South,180,5.0,12.0,97,0.06,,,0.04,Rainwise IP-100,2013-11-18 01:07:00,
2013-11-17 20:12:00,47.0,46.0,30.03,SW,225,5.0,11.0,97,0.06,,,0.04,Rainwise IP-100,2013-11-18 01:12:00,
2013-11-17 20:17:00,47.0,46.0,30.03,South,180,7.0,11.0,97,0.00,,,0.04,Rainwise IP-100,2013-11-18 01:17:00,
2013-11-17 20:22:00,47.0,46.0,30.01,South,180,7.0,11.0,97,0.00,,,0.04,Rainwise IP-100,2013-11-18 01:22:00,
2013-11-17 20:27:00,47.0,46.0,30.01,SSW,202,10.0,10.0,97,0.00,,,0.04,Rainwise IP-100,2013-11-18 01:27:00,
2013-11-17 20:32:00,48.0,47.0,30.00,South,180,8.0,16.0,97,0.00,,,0.04,Rainwise IP-100,2013-11-18 01:32:00,
2013-11-17 20:37:00,48.0,47.0,30.00,South,180,17.0,17.0,97,0.00,,,0.04,Rainwise IP-100,2013-11-18 01:37:00,
2013-11-17 20:42:00,48.0,47.0,29.99,SSW,202,10.0,21.0,97,0.00,,,0.04,Rainwise IP-100,2013-11-18 01:42:00,
2013-11-17 20:47:00,48.0,47.0,29.99,South,180,13.0,23.0,97,0.00,,,0.04,Rainwise IP-100,2013-11-18 01:47:00,
2013-11-17 20:52:00,48.0,47.0,29.98,SSW,202,13.0,23.0,97,0.00,,,0.04,Rainwise IP-100,2013-11-18 01:52:00,
2013-11-17 20:57:00,49.0,48.0,29.98,SW,225,10.0,21.0,97,0.00,,,0.04,Rainwise IP-100,2013-11-18 01:57:00,
2013-11-17 21:02:00,49.0,48.0,29.97,SW,225,15.0,22.0,96,0.00,,,0.04,Rainwise IP-100,2013-11-18 02:02:00,
2013-11-17 21:07:00,48.0,47.0,29.97,SSW,202,16.0,19.0,97,0.00,,,0.04,Rainwise IP-100,2013-11-18 02:07:00,
2013-11-17 21:12:00,48.0,47.0,29.97,SW,225,11.0,23.0,97,0.00,,,0.04,Rainwise IP-100,2013-11-18 02:12:00,
2013-11-17 21:17:00,48.0,47.0,29.97,WSW,247,13.0,21.0,97,0.00,,,0.04,Rainwise IP-100,2013-11-18 02:17:00,
2013-11-17 21:22:00,48.0,47.0,29.96,SW,225,15.0,22.0,97,0.00,,,0.04,Rainwise IP-100,2013-11-18 02:22:00,
2013-11-17 21:27:00,48.0,47.0,29.96,SW,225,13.0,19.0,97,0.00,,,0.04,Rainwise IP-100,2013-11-18 02:27:00,
2013-11-17 21:32:00,48.0,47.0,29.96,SW,225,12.0,22.0,97,0.00,,,0.04,Rainwise IP-100,2013-11-18 02:32:00,
2013-11-17 21:37:00,48.0,47.0,29.96,SW,225,15.0,20.0,97,0.00,,,0.04,Rainwise IP-100,2013-11-18 02:37:00,
2013-11-17 21:42:00,48.0,47.0,29.96,SW,225,15.0,21.0,97,0.00,,,0.04,Rainwise IP-100,2013-11-18 02:42:00,
2013-11-17 21:47:00,48.0,47.0,29.96,SW,225,13.0,21.0,97,0.00,,,0.04,Rainwise IP-100,2013-11-18 02:47:00,
2013-11-17 21:52:00,48.0,47.0,29.95,SW,225,11.0,17.0,97,0.00,,,0.04,Rainwise IP-100,2013-11-18 02:52:00,
2013-11-17 21:57:00,48.0,47.0,29.95,SSW,202,16.0,20.0,97,0.00,,,0.04,Rainwise IP-100,2013-11-18 02:57:00,
2013-11-17 22:02:00,48.0,47.0,29.95,South,180,14.0,22.0,97,0.00,,,0.04,Rainwise IP-100,2013-11-18 03:02:00,
2013-11-17 22:07:00,48.0,47.0,29.95,SSW,202,12.0,20.0,97,0.00,,,0.04,Rainwise IP-100,2013-11-18 03:07:00,
2013-11-17 22:12:00,48.0,47.0,29.94,SSW,202,14.0,23.0,97,0.06,,,0.05,Rainwise IP-100,2013-11-18 03:12:00,
2013-11-17 22:17:00,48.0,47.0,29.94,South,180,13.0,25.0,97,0.06,,,0.05,Rainwise IP-100,2013-11-18 03:17:00,
2013-11-17 22:22:00,48.0,47.0,29.93,South,180,16.0,17.0,97,0.00,,,0.05,Rainwise IP-100,2013-11-18 03:22:00,
2013-11-17 22:27:00,48.0,47.0,29.93,SW,225,10.0,17.0,97,0.00,,,0.05,Rainwise IP-100,2013-11-18 03:27:00,
2013-11-17 22:32:00,48.0,47.0,29.92,SSW,202,10.0,16.0,97,0.00,,,0.05,Rainwise IP-100,2013-11-18 03:32:00,
2013-11-17 22:37:00,48.0,47.0,29.92,South,180,16.0,17.0,97,0.00,,,0.05,Rainwise IP-100,2013-11-18 03:37:00,
2013-11-17 22:42:00,48.0,47.0,29.92,SW,225,9.0,18.0,97,0.06,,,0.06,Rainwise IP-100,2013-11-18 03:42:00,
2013-11-17 22:47:00,48.0,47.0,29.92,SW,225,11.0,17.0,97,0.06,,,0.06,Rainwise IP-100,2013-11-18 03:47:00,
2013-11-17 22:52:00,48.0,47.0,29.91,SSW,202,10.0,14.0,97,0.00,,,0.06,Rainwise IP-100,2013-11-18 03:52:00,
2013-11-17 22:57:00,49.0,48.0,29.91,SSW,202,15.0,25.0,97,0.00,,,0.06,Rainwise IP-100,2013-11-18 03:57:00,
2013-11-17 23:02:00,49.0,48.0,29.89,South,180,9.0,23.0,97,0.00,,,0.06,Rainwise IP-100,2013-11-18 04:02:00,
2013-11-17 23:07:00,49.0,48.0,29.89,SW,225,10.0,21.0,97,0.00,,,0.06,Rainwise IP-100,2013-11-18 04:07:00,
2013-11-17 23:12:00,49.0,48.0,29.88,SSW,202,13.0,20.0,97,0.00,,,0.06,Rainwise IP-100,2013-11-18 04:12:00,
2013-11-17 23:17:00,49.0,48.0,29.88,SSW,202,9.0,19.0,97,0.00,,,0.06,Rainwise IP-100,2013-11-18 04:17:00,
2013-11-17 23:22:00,50.0,49.0,29.86,SW,225,12.0,20.0,97,0.00,,,0.06,Rainwise IP-100,2013-11-18 04:22:00,
2013-11-17 23:27:00,49.0,48.0,29.86,SSW,202,6.0,15.0,97,0.00,,,0.06,Rainwise IP-100,2013-11-18 04:27:00,
2013-11-17 23:32:00,50.0,49.0,29.86,South,180,7.0,13.0,97,0.00,,,0.06,Rainwise IP-100,2013-11-18 04:32:00,
2013-11-17 23:37:00,50.0,49.0,29.86,SW,225,12.0,14.0,97,0.00,,,0.06,Rainwise IP-100,2013-11-18 04:37:00,
2013-11-17 23:42:00,50.0,49.0,29.85,South,180,7.0,14.0,97,0.00,,,0.06,Rainwise IP-100,2013-11-18 04:42:00,
2013-11-17 23:47:00,50.0,49.0,29.85,SW,225,7.0,13.0,97,0.00,,,0.06,Rainwise IP-100,2013-11-18 04:47:00,
2013-11-17 23:52:00,50.0,49.0,29.84,SW,225,12.0,17.0,97,0.00,,,0.06,Rainwise IP-100,2013-11-18 04:52:00,
2013-11-17 23:57:00,50.0,49.0,29.84,SW,225,7.0,13.0,97,0.00,,,0.06,Rainwise IP-100,2013-11-18 04:57:00,